THORAD AGENA D DEB, 14469

Orbit data source: Space-Track

THORAD AGENA D DEB, 14469 is space debris in SSO originally from a launch on Wed, 08 Apr 1970 UTC launched from the Air Force Western Test Range (AFWTR). Debris objects in space refer to the collection of defunct objects orbiting the Earth. Examples of debris include non-operational satellites, rocket bodies, and fragments generated from explosions, collisions, or faulty payload assembly.

Loading next visibility...
Identifier
14469, 1970-025NV
Orbit
SSO
Country
Flag of USUS
Related business
Manufacturer
Unknown
Mission
Spacecraft
Bus & Motor
Unknown
Mass
Unknown
Launch date (UTC)
1970-04-08 (56 years ago)
Launch vehicle
Unknown
Launch site
Air Force Western Test Range (AFWTR)
Object type
Payload
Rocket body
Debris
Shape & HBR
Unknown shape, 1.1 m
Radar Cross Section
Medium (>0.1 m² and <1 m²)

Expand to show TLE details & history
Last TLE update: 7 hours ago

TLE from 7 hours ago
0 THORAD AGENA D DEB
1 14469U 70025NV  26208.32742005  .00000332  00000-0  95325-3 0  9994
2 14469 101.6076 140.9062 0273012  66.8690  83.7233 13.07409294151157
Epoch: 2026-07-27T07:51Z
TLE epoch observation values (Epoch: 2026-07-27T07:51:29.092Z)
Latitude
25.74348°
Longitude
-96.32203°
Altitude
1,218.998 km
Speed
7.255 km/s
True Right ascension
21h 46m 14s
True Declination
25° 37' 02"
Sunlit
Object was in full shadow at epoch
Visualization orbit readout
Latitude
Unknown
Longitude
Unknown
Altitude
Unknown
Speed
Unknown
Apparent Right ascension
Unknown
Apparent Declination
Unknown
Sunlit
N/A
Visualization observer readout
Local Sidereal Time
04:38:55
Azimuth
Unknown
Elevation
Unknown
Doppler factor
Unknown
Orbital elements
Apogee altitude
1,438.387 km
Perigee altitude
1,022.929 km
Semi-major axis
7,608.795 km
Eccentricity
0.0273
Inclination
101.6076°
RAAN
140.9062°
Arg. of periapsis
66.869°
True anomaly
86.84313°
Mean anomaly
83.7233°
Eccentric anomaly
85.28224°
Mean motion
3.27016 °/min
Orbital period
110.09 mins
BSTAR
0.00095325
Loading maneuver chart data...
Computing Atmospheric mass density...

Documentation

Showing up to 5 results
|